TimeEDT,TemperatureF,Dew PointF,Humidity,Sea Level PressureIn,VisibilityMPH,Wind Direction,Wind SpeedMPH,Gust SpeedMPH,PrecipitationIn,Events,Conditions,WindDirDegrees,DateUTC
12:53 AM,72.0,69.1,91,29.91,9.0,Calm,Calm,-,N/A,,Clear,0,2013-07-28 04:53:00
1:53 AM,71.1,68.0,90,29.91,8.0,Calm,Calm,-,N/A,,Clear,0,2013-07-28 05:53:00
2:53 AM,71.1,69.1,93,29.90,7.0,Calm,Calm,-,N/A,,Mostly Cloudy,0,2013-07-28 06:53:00
3:36 AM,69.8,68.0,94,29.95,5.0,Calm,Calm,-,N/A,,Scattered Clouds,0,2013-07-28 07:36:00
3:53 AM,70.0,68.0,93,29.91,7.0,Calm,Calm,-,N/A,,Scattered Clouds,0,2013-07-28 07:53:00
4:53 AM,69.1,66.9,93,29.93,6.0,Calm,Calm,-,N/A,,Scattered Clouds,0,2013-07-28 08:53:00
5:05 AM,69.8,66.2,88,29.97,6.0,Calm,Calm,-,N/A,,Mostly Cloudy,0,2013-07-28 09:05:00
5:53 AM,69.1,66.9,93,29.94,8.0,Calm,Calm,-,N/A,,Overcast,0,2013-07-28 09:53:00
6:02 AM,69.8,66.2,88,29.98,8.0,Calm,Calm,-,N/A,,Mostly Cloudy,0,2013-07-28 10:02:00
6:53 AM,68.0,66.0,93,29.96,4.0,Calm,Calm,-,N/A,,Partly Cloudy,0,2013-07-28 10:53:00
7:06 AM,69.8,64.4,83,30.00,9.0,Calm,Calm,-,N/A,,Mostly Cloudy,0,2013-07-28 11:06:00
7:32 AM,68.0,64.4,88,30.02,10.0,Calm,Calm,-,N/A,,Scattered Clouds,0,2013-07-28 11:32:00
7:53 AM,69.1,64.9,87,29.98,10.0,Calm,Calm,-,N/A,,Clear,0,2013-07-28 11:53:00
8:53 AM,72.0,63.0,73,29.99,10.0,Calm,Calm,-,N/A,,Partly Cloudy,0,2013-07-28 12:53:00
9:53 AM,73.9,62.1,66,29.99,10.0,Calm,Calm,-,N/A,,Clear,0,2013-07-28 13:53:00
10:53 AM,75.9,63.0,64,29.99,10.0,Calm,Calm,-,N/A,,Scattered Clouds,0,2013-07-28 14:53:00
11:04 AM,75.2,62.6,65,30.04,10.0,Calm,Calm,-,N/A,,Mostly Cloudy,0,2013-07-28 15:04:00
11:18 AM,77.0,62.6,61,30.04,10.0,Variable,4.6,-,N/A,,Mostly Cloudy,0,2013-07-28 15:18:00
11:53 AM,80.1,63.0,56,30.00,10.0,Variable,3.5,-,N/A,,Scattered Clouds,0,2013-07-28 15:53:00
12:53 PM,80.1,60.1,50,30.00,10.0,Variable,5.8,-,N/A,,Partly Cloudy,0,2013-07-28 16:53:00
1:53 PM,81.0,61.0,50,29.99,10.0,Variable,6.9,-,N/A,,Partly Cloudy,0,2013-07-28 17:53:00
2:53 PM,81.0,57.0,44,29.99,10.0,West,6.9,-,N/A,,Clear,270,2013-07-28 18:53:00
3:53 PM,82.0,57.0,42,29.98,10.0,SW,5.8,-,N/A,,Clear,220,2013-07-28 19:53:00
4:53 PM,82.9,57.0,41,29.98,10.0,Variable,4.6,-,N/A,,Partly Cloudy,0,2013-07-28 20:53:00
5:53 PM,82.9,55.9,39,29.97,10.0,WNW,3.5,-,N/A,,Clear,300,2013-07-28 21:53:00
6:53 PM,82.0,55.9,41,29.98,10.0,Variable,3.5,-,N/A,,Clear,0,2013-07-28 22:53:00
7:53 PM,80.1,55.9,43,29.99,10.0,Variable,3.5,-,N/A,,Clear,0,2013-07-28 23:53:00
8:53 PM,73.9,59.0,59,30.01,10.0,Calm,Calm,-,N/A,,Clear,0,2013-07-29 00:53:00
9:53 PM,71.1,60.1,68,30.04,10.0,Calm,Calm,-,N/A,,Clear,0,2013-07-29 01:53:00
10:53 PM,66.9,60.1,79,30.06,10.0,Calm,Calm,-,N/A,,Clear,0,2013-07-29 02:53:00
11:53 PM,64.9,60.1,84,30.07,10.0,Calm,Calm,-,N/A,,Clear,0,2013-07-29 03:53:00